This is the latest recevied weather packets stored in our database for station/object K7BC. If no packets are shown the sender has not sent any weather packets the latest 10 day(s).
| Time | Temp. | Humidity | Pressure | Rain* | Wind** | Luminosity | Snow |
|---|---|---|---|---|---|---|---|
| 1778132945 | 13.33° C | 92% | 1010.1 hPa | 1.02 mm | - | - | - |
| 1778132825 | 13.33° C | 93% | 1010 hPa | 1.02 mm | - | - | - |
| 1778132705 | 13.33° C | 93% | 1010.1 hPa | 1.02 mm | - | - | - |
| 1778132585 | 13.33° C | 93% | 1010.1 hPa | 1.02 mm | - | - | - |
| 1778132465 | 13.33° C | 93% | 1010.1 hPa | 1.02 mm | - | - | - |
| 1778132345 | 13.33° C | 93% | 1010.4 hPa | 1.02 mm | - | - | - |
| 1778132225 | 13.89° C | 93% | 1010.6 hPa | 1.27 mm | - | - | - |
| 1778132105 | 13.89° C | 93% | 1010.6 hPa | 1.27 mm | - | - | - |
| 1778131984 | 13.89° C | 93% | 1010.6 hPa | 1.52 mm | - | - | - |
| 1778131865 | 13.89° C | 93% | 1010.6 hPa | 1.52 mm | - | - | - |
| 1778131744 | 13.89° C | 92% | 1010.6 hPa | 1.52 mm | - | - | - |
| 1778131624 | 13.89° C | 92% | 1010.4 hPa | 1.78 mm | - | - | - |
| 1778131505 | 13.89° C | 92% | 1010.4 hPa | 2.03 mm | - | - | - |
| 1778131384 | 13.89° C | 92% | 1010.5 hPa | 2.29 mm | - | - | - |
| 1778131265 | 13.89° C | 92% | 1010.4 hPa | 2.54 mm | - | - | - |
| 1778131145 | 13.89° C | 92% | 1010.3 hPa | 2.79 mm | - | - | - |
| 1778131024 | 13.89° C | 92% | 1010.3 hPa | 3.05 mm | - | - | - |
| 1778130904 | 13.89° C | 92% | 1010.1 hPa | 3.3 mm | - | - | - |
| 1778130785 | 13.89° C | 92% | 1010.1 hPa | 3.05 mm | - | - | - |
| 1778130664 | 13.89° C | 92% | 1010.2 hPa | 3.05 mm | - | - | - |
| 1778130544 | 13.89° C | 92% | 1010.3 hPa | 3.05 mm | - | - | - |
| 1778130424 | 13.89° C | 92% | 1010.5 hPa | 3.05 mm | - | - | - |
| 1778130305 | 14.44° C | 92% | 1010.5 hPa | 3.05 mm | - | - | - |
| 1778130185 | 14.44° C | 92% | 1010.6 hPa | 3.05 mm | - | - | - |
| 1778130065 | 14.44° C | 92% | 1010.6 hPa | 3.05 mm | - | - | - |
* Rain latest hour (hover to see other rain measurements)
** Current wind speed in m/s (hover to see current wind gust speed)